Regional Weather Roundup
Issued by NWS Binghamton, NY

Home | Current Version | Previous Version | Text Only | Print | Product List | Glossary On
Versions: 1 2 3 4 5 6 7 8 9 10 11 12 13 14 15 16 17 18 19 20 21 22 23 24 25 26 27 28 29 30 31 32 33 34 35 36 37 38 39 40 41 42 43 44 45 46 47 48 49 50
000
ASUS41 KBGM 031310
RWRBGM
RWRBGM
BINGHAMTON REGIONAL WEATHER ROUNDUP
NATIONAL WEATHER SERVICE BINGHAMTON NY
900 AM EDT MON AUG 03 2015

Note: "fair" indicates few or no clouds below 12,000 feet with no
significant weather and/or obstructions to visibility.

* = Station(s) that does not report precipitation, such as rain,
snow, etc, also no thunder or fog.

!NYZ009-015>018-022>025-036-037-044>046-055>057-062-031400
...CENTRAL NEW YORK...

CITY           SKY/WX    TMP DP  RH WIND       PRES   REMARKS
BINGHAMTON     MOSUNNY   71  61  70 SW12G18   29.80F
CORTLAND       FAIR      73  63  68 SW9       29.77F
DANSVILLE      CLOUDY    73  60  63 NW13      29.76R
ELMIRA         MOSUNNY   75  63  66 SW14      29.75S
ITHACA         MOSUNNY   74  62  66 S7        29.77F
HORNELL          N/A     73  57  56 SW8       29.79S
MONTICELLO     SUNNY     72  63  73 SW6       29.88F
NORWICH        SUNNY     73  61  64 S10       29.78S
ONEONTA        SUNNY     72  57  60 SW8G17    29.81F
PENN YAN       PTSUNNY   76  62  62 SW10G17   29.74R
ROME           PTSUNNY   76  63  64 CALM      29.73R
SIDNEY         SUNNY     75  64  69 SW8       29.79S
SYRACUSE       CLOUDY    76  62  62 W14       29.72R
$$

!PAZ038>040-043-044-047-048-072-031400
...NORTHEAST PENNSYLVANIA...

CITY           SKY/WX    TMP DP  RH WIND       PRES   REMARKS
HAZLETON       SUNNY     75  61  60 SW6       29.90F
SCRANTON       SUNNY     76  61  59 VRB6      29.83F
$$
&&
KEY
WCI = WIND CHILL INDEX
VSB = VISIBILITY
HX  = HEAT INDEX
$$


USA.gov is the U.S. government's official web portal to all federal, state and local government web resources and services.